Location: Monrovia
(34.7865°N, 86.7139°W)
Time: 15:12:00
(UTC+00:00)

Cosmos 2084 - Pass Details

Date: 14 July 2020
Orbit: 571 x 612 km, 62.8° (Epoch: 13 August)

Event Time Altitude Azimuth Distance (km) Brightness Sun altitude
Rises 01:56:22 0° 330° (NNW) 2,877 8.3 -10.5°
Reaches altitude 10° 01:58:40 10° 332° (NNW) 1,967 7.3 -10.9°
Maximum altitude 02:03:07 75° 57° (ENE) 631 3.5 -11.6°
Enters shadow 02:06:29 17° 142° (SE) 1,539 5.0 -12.1°
